Погода в Савудриях

Хорватия     45°29′21″N   13°30′11″E
темп.,
°C
ветер,
м/с
пор.,
м/с
влажн.,
%
обл.,
%
осадки,
мм/ч
давл.,
гПа
погр.,
м
16 июня, ср
ср1623:00+21в226384 0.0 101767
02:00+21св2370100 0.0 1017158
05:00+21ссв2275100 0.0 1016173
08:00+21ссв227458 0.0 1016208
11:00+22сз32715 0.0 1017245
14:00+23зсз33685 0.0 1016233
17:00+25юз336295 0.0 1015238
20:00+24юз11710 0.0 101511
17 июня, чт
чт1723:00+23вюв11695 0.0 101611
02:00+22в11650 0.0 101643
05:00+21всв22630 0.0 101672
08:00+22св11590 0.0 1017101
11:00+23з32610 0.0 1017241
14:00+24зюз33603 0.0 1017289
17:00+25юз22595 0.0 1016235
20:00+24ююз226889 0.0 101636
18 июня, пт
пт1823:00+22юв3370100 0.0 101661
02:00+22вюв1167100 0.0 101741
05:00+22всв2368100 0.0 101687
08:00+23ююз126610 0.0 1017135
11:00+23з22645 0.0 1018310
14:00+23зюз34625 0.0 1017323
17:00+24зюз446310 0.0 1017345
20:00+23ююв017189 0.0 101716
19 июня, сб
сб1923:00+22ююв227098 0.0 101727
02:00+22вюв11695 0.0 101749
05:00+21всв116917 0.0 101765
08:00+23с12679 0.0 1018114
11:00+23сз22645 0.0 1017199
14:00+24з336484 0.0 1016234
17:00+25зюз33655 0.0 1015233
20:00+24св117262 0.0 101511
20 июня, вс
вс2023:00+24св1172100 0.0 101511
02:00+24св227465 0.0 101417
05:00+23с228140 0.0 101432
08:00+24ссв22786 0.0 101448
11:00+25сз22695 0.0 1013177
14:00+25з44705 0.0 1012214
17:00+27зюз236769 0.0 1011180
20:00+27в227031 0.0 101011